Location: Blackwall
(51.5097°N, 0.0016°W)
Time: 01:52:48
(UTC+00:00)

Cosmos 1354 Rocket - Pass Details

Date: 15 May 2026
Orbit: 761 x 778 km, 74.0° (Epoch: 8 June)

Event Time Altitude Azimuth Distance (km) Brightness Sun altitude
Rises 21:57:00 0° 334° (NNW) 3,249 9.2 -14.8°
Reaches altitude 10° 21:59:24 10° 333° (NNW) 2,316 7.9 -15.0°
Maximum altitude 22:04:39 80° 248° (WSW) 783 4.0 -15.3°
Enters shadow 22:07:47 25° 164° (SSE) 1,519 4.9 -15.6°
